[[{"header":{"parameterUnit":"m.s-1","parameterCategory":1,"la1":30.2991,"la2":30.254,"lo1":-89.0895,"lo2":-89.0444,"dy":0.0017,"dx":0.0017,"nx":28,"ny":28,"refTime":"2025-06-12T09:00:00:Z","depth":0,"parameterNumber":2,"parameterNumberName":"U-component_of_WINDS"},"data":[0,0,0,0,0,0,0,0,0,0,0,0,0,0,0,0,0,0,0,0,0,0,0,0,0,0,0,0,0,0,0,0,0,0,0,0,0,0,0,0,0,0,0,0,0,0,0,0,0,0,0,0,0,0,0,0,0,0,-2.2438,-2.2439,0,-2.2512,-2.2512,-2.2513,-2.2541,-2.2541,-2.254,-2.254,-2.2622,-2.2625,-2.2627,0,0,0,0,0,0,0,0,0,0,0,0,0,-2.2326,-2.2328,-2.2438,-2.2439,-2.244,-2.2511,-2.2512,-2.2513,-2.2541,-2.2541,-2.254,-2.254,-2.2622,-2.2625,-2.2627,0,0,0,0,0,0,0,0,0,0,0,0,0,-2.2384,-2.2328,-2.2438,-2.2462,-2.2465,-2.2511,-2.2512,-2.2514,-2.2541,-2.2541,-2.254,-2.254,-2.2621,-2.2624,-2.2628,-2.2658,0,0,-2.2639,-2.2641,0,0,0,0,0,0,0,0,-2.2381,-2.2389,-2.2458,-2.2461,-2.2464,-2.2516,-2.2503,-2.2562,-2.2541,-2.2512,-2.254,-2.254,-2.2588,-2.2594,-2.2609,-2.2662,-2.2665,-2.2639,-2.2641,-2.2643,-2.2644,0,0,0,0,0,0,0,-2.2377,-2.2386,-2.2468,-2.2459,-2.2462,-2.247,-2.2478,-2.2514,-2.2552,-2.2515,-2.2517,-2.2525,-2.259,-2.2606,-2.2611,-2.2666,-2.2639,-2.2642,-2.2645,-2.2646,-2.2742,-2.2743,0,0,0,0,0,0,-2.2368,-2.2382,-2.2465,-2.247,-2.242,-2.2473,-2.2482,-2.25,-2.2551,-2.2559,-2.2525,-2.2526,-2.26,-2.2607,-2.2614,-2.265,-2.2643,-2.2646,-2.2648,-2.2742,-2.2742,-2.2743,0,0,0,0,0,0,-2.2366,-2.2375,-2.2462,-2.2426,-2.2438,-2.2475,-2.2496,-2.2502,-2.2518,-2.2559,-2.2566,-2.2534,-2.26,-2.2609,-2.2645,-2.2653,-2.2648,-2.2651,-2.2742,-2.2742,-2.2743,-2.2722,0,0,0,0,0,0,-2.2362,-2.2374,-2.2385,-2.2426,-2.244,-2.2491,-2.2496,-2.2503,-2.2523,-2.2525,-2.2569,-2.2577,-2.26,-2.2639,-2.2649,-2.2658,-2.2654,-2.2741,-2.2742,-2.2742,-2.2723,-2.2722,-2.2722,0,0,0,0,0,-2.2358,-2.2379,-2.2386,-2.2396,-2.2454,-2.2491,-2.2499,-2.2524,-2.2523,-2.2535,-2.2561,-2.2575,-2.265,-2.2643,-2.2654,-2.2664,-2.2741,-2.2742,-2.2742,-2.2723,-2.2722,-2.2722,0,0,0,0,0,0,-2.2343,-2.2385,-2.2393,-2.2428,-2.2455,-2.2496,-2.2512,-2.2523,-2.2553,-2.2554,-2.2585,-2.2595,-2.2627,-2.265,-2.2641,-2.2693,-2.2696,-2.2699,-2.2678,-2.2678,-2.2677,-2.2672,-2.2657,0,0,0,0,0,-2.2342,-2.2367,-2.2404,-2.2431,-2.2444,-2.2475,-2.2492,-2.2508,-2.2539,-2.2551,-2.258,-2.2611,-2.2641,-2.2661,-2.2691,-2.2725,-2.2735,-2.2737,-2.2737,-2.2737,-2.2739,-2.2755,-2.2757,-2.2746,-2.2746,-2.2746,0,0,-2.2344,-2.237,-2.2385,-2.2428,-2.2452,-2.2477,-2.2485,-2.2513,-2.2532,-2.2557,-2.2591,-2.2612,-2.2649,-2.2682,-2.2699,-2.2702,-2.2743,-2.2738,-2.2737,-2.274,-2.2756,-2.2757,-2.2758,-2.2746,-2.2746,-2.2746,0,0,-2.2359,-2.2382,-2.2405,-2.2427,-2.246,-2.2479,-2.2485,-2.2522,-2.2536,-2.2571,-2.2588,-2.2612,-2.2664,-2.2688,-2.2707,-2.2725,-2.2739,-2.2735,-2.2733,-2.2749,-2.275,-2.2751,-2.2755,-2.2757,-2.2737,-2.2737,-2.2737,0,-2.2357,-2.2395,-2.2417,-2.2441,-2.2459,-2.2478,-2.2502,-2.2522,-2.2565,-2.2577,-2.2579,-2.2641,-2.2667,-2.2705,-2.2709,-2.2725,-2.2731,-2.273,-2.2747,-2.2749,-2.275,-2.2755,-2.2756,-2.2736,-2.2736,-2.2736,-2.2736,0,-2.239,-2.2415,-2.243,-2.2466,-2.2486,-2.251,-2.2536,-2.2553,-2.2566,-2.2585,-2.2618,-2.2649,-2.2684,-2.2694,-2.271,-2.2734,-2.2734,-2.2741,-2.2745,-2.2749,-2.2754,-2.2757,-2.2735,-2.2735,-2.2735,-2.2735,0,0,-2.2401,-2.2444,-2.2449,-2.2464,-2.2499,-2.252,-2.2544,-2.2575,-2.2588,-2.2616,-2.2637,-2.2678,-2.2683,-2.2704,-2.2721,-2.2735,-2.2744,-2.274,-2.2741,-2.2739,-2.277,-2.2764,-2.2766,-2.2752,-2.2753,-2.2753,-2.2766,0,-2.2419,-2.2461,-2.2479,-2.2513,-2.2535,-2.2551,-2.2572,-2.2596,-2.2614,-2.2636,-2.2657,-2.2684,-2.269,-2.2702,-2.2716,-2.274,-2.2751,-2.2739,-2.2772,-2.2773,-2.2762,-2.2769,-2.2764,-2.2775,-2.2769,-2.2769,-2.2769,0,-2.2448,-2.2471,-2.2505,-2.2534,-2.2544,-2.2562,-2.259,-2.2611,-2.2638,-2.265,-2.267,-2.2686,-2.2711,-2.2712,-2.2747,-2.2739,-2.2753,-2.2766,-2.2767,-2.2772,-2.2772,-2.2773,-2.2779,-2.2781,-2.2773,-2.2773,-2.2773,0,-2.2449,-2.249,-2.2514,-2.2527,-2.2562,-2.2573,-2.2589,-2.2615,-2.2631,-2.2656,-2.2666,-2.2694,-2.271,-2.2732,-2.2754,-2.2753,-2.2786,-2.2789,-2.2797,-2.2796,-2.2804,-2.2803,-2.2812,-2.2814,-2.2814,-2.2813,-2.2813,0,-2.2468,-2.2489,-2.2515,-2.2531,-2.2553,-2.2573,-2.2595,-2.2612,-2.2634,-2.2653,-2.267,-2.2688,-2.2716,-2.2737,-2.2755,-2.278,-2.2788,-2.2798,-2.2802,-2.2796,-2.2794,-2.2806,-2.2806,-2.2814,-2.2814,-2.2814,-2.2814,0,-2.2475,-2.2493,-2.2521,-2.255,-2.2557,-2.2572,-2.2597,-2.2613,-2.2629,-2.2653,-2.266,-2.2687,-2.2712,-2.2735,-2.2771,-2.2782,-2.2807,-2.2813,-2.2797,-2.2799,-2.2805,-2.2803,-2.2822,-2.2824,-2.2824,-2.2824,-2.2824,0,-2.2486,-2.2501,-2.2529,-2.2541,-2.2555,-2.2576,-2.2591,-2.261,-2.2625,-2.2654,-2.2666,-2.2691,-2.2713,-2.2753,-2.2776,-2.2802,-2.2809,-2.2813,-2.2813,-2.2805,-2.2807,-2.2806,-2.2807,-2.2813,-2.2813,-2.2813,-2.2813,0,-2.2502,-2.2509,-2.2529,-2.255,-2.2566,-2.2585,-2.2605,-2.2615,-2.2638,-2.2654,-2.2678,-2.2694,-2.2727,-2.2752,-2.2779,-2.2797,-2.2808,-2.2812,-2.2815,-2.2809,-2.2798,-2.2802,-2.2795,-2.2812,-2.2812,-2.2812,-2.2812,-2.2812,-2.251,-2.2523,-2.2544,-2.2564,-2.258,-2.2596,-2.2611,-2.2627,-2.2647,-2.2673,-2.2683,-2.2707,-2.2731,-2.2768,-2.2785,-2.2804,-2.2807,-2.2811,-2.2813,-2.2813,-2.2811,-2.2794,-2.2809,-2.2809,-2.2809,-2.281,-2.281,0,-2.2526,-2.2539,-2.2557,-2.2581,-2.2597,-2.2603,-2.2624,-2.2637,-2.2657,-2.2676,-2.2695,-2.2721,-2.2745,-2.2768,-2.2792,-2.2803,-2.2809,-2.2809,-2.2808,-2.2811,-2.2808,-2.2802,-2.2803,-2.2803,-2.2803,-2.2803,-2.2803,-2.2803,-2.2536,-2.2557,-2.2566,-2.2594,-2.2607,-2.2628,-2.2639,-2.2654,-2.2669,-2.2697,-2.2715,-2.2728,-2.2749,-2.2774,-2.2795,-2.2801,-2.2809,-2.2807,-2.2815,-2.2812,-2.2812,-2.2812,-2.2807,-2.2809,-2.2809,-2.2816,-2.2817,-2.2817]},{"header":{"parameterUnit":"m.s-1","parameterCategory":1,"la1":30.2991,"la2":30.254,"lo1":-89.0895,"lo2":-89.0444,"dy":0.0017,"dx":0.0017,"nx":28,"ny":28,"refTime":"2025-06-12T09:00:00:Z","depth":0,"parameterNumber":3,"parameterNumberName":"V-component_of_WINDS"},"data":[0,0,0,0,0,0,0,0,0,0,0,0,0,0,0,0,0,0,0,0,0,0,0,0,0,0,0,0,0,0,0,0,0,0,0,0,0,0,0,0,0,0,0,0,0,0,0,0,0,0,0,0,0,0,0,0,0,0,3.3731,3.3734,0,3.398,3.3983,3.3986,3.3979,3.3975,3.3972,3.3969,3.4231,3.4241,3.4251,0,0,0,0,0,0,0,0,0,0,0,0,0,3.3259,3.3268,3.3731,3.3734,3.3737,3.398,3.3983,3.3987,3.3979,3.3975,3.3971,3.3967,3.4227,3.4239,3.4252,0,0,0,0,0,0,0,0,0,0,0,0,0,3.3482,3.3271,3.373,3.3763,3.3768,3.3979,3.3983,3.3987,3.398,3.3975,3.397,3.3965,3.4223,3.4238,3.4253,3.4451,0,0,3.43,3.4307,0,0,0,0,0,0,0,0,3.3469,3.3499,3.3755,3.3761,3.3767,3.3943,3.3913,3.4143,3.3981,3.39,3.3968,3.3962,3.414,3.4161,3.422,3.4463,3.4474,3.4301,3.4311,3.4317,3.4321,0,0,0,0,0,0,0,3.3454,3.3489,3.383,3.3759,3.3766,3.3768,3.3794,3.3957,3.4046,3.3907,3.3907,3.3936,3.4142,3.4205,3.4226,3.4478,3.4301,3.4314,3.4324,3.433,3.4901,3.4907,0,0,0,0,0,0,3.343,3.3476,3.3822,3.3837,3.3602,3.3781,3.381,3.3892,3.4044,3.4062,3.394,3.3935,3.4181,3.4208,3.4235,3.4479,3.4317,3.4331,3.434,3.4895,3.4903,3.4909,0,0,0,0,0,0,3.342,3.3461,3.3812,3.3657,3.3701,3.3794,3.3887,3.3899,3.3962,3.4069,3.4086,3.3987,3.4178,3.4214,3.4398,3.4488,3.4338,3.4352,3.4888,3.4898,3.4906,3.4966,0,0,0,0,0,0,3.3407,3.3458,3.3531,3.3658,3.371,3.3967,3.3892,3.3908,3.3988,3.3983,3.4118,3.4135,3.4177,3.4375,3.4413,3.4506,3.4364,3.4881,3.4892,3.4903,3.4956,3.4976,3.4993,0,0,0,0,0,3.339,3.3539,3.3535,3.3576,3.3803,3.3972,3.4002,3.4045,3.3995,3.4071,3.4141,3.4131,3.4472,3.4394,3.4437,3.4536,3.4875,3.4889,3.4902,3.4948,3.4972,3.4992,0,0,0,0,0,0,3.3421,3.3556,3.3553,3.3746,3.3848,3.3971,3.4068,3.4068,3.4188,3.4179,3.4229,3.426,3.4445,3.4509,3.442,3.4737,3.4668,3.469,3.4688,3.4712,3.4729,3.471,3.4377,0,0,0,0,0,3.345,3.3574,3.3686,3.3847,3.3897,3.3974,3.405,3.4074,3.4182,3.4226,3.4308,3.4416,3.4548,3.4633,3.476,3.4966,3.4997,3.5056,3.5074,3.5088,3.5107,3.5225,3.5253,3.4954,3.4953,3.4953,0,0,3.3512,3.3601,3.3676,3.3855,3.3936,3.4067,3.401,3.415,3.4248,3.4248,3.4426,3.4492,3.4616,3.4812,3.4903,3.4871,3.5197,3.5106,3.5116,3.5128,3.5242,3.527,3.5295,3.4963,3.4961,3.496,0,0,3.3691,3.377,3.3913,3.3996,3.412,3.4171,3.4206,3.433,3.4373,3.4553,3.4556,3.4676,3.49,3.4989,3.5064,3.5282,3.5279,3.5323,3.5417,3.5531,3.5555,3.5576,3.5656,3.5684,3.5341,3.5342,3.5342,0,3.3753,3.3946,3.3988,3.4129,3.4209,3.4214,3.4362,3.4442,3.4602,3.4659,3.462,3.4905,3.4988,3.5208,3.5261,3.5321,3.5365,3.5307,3.5547,3.5569,3.559,3.5667,3.5696,3.5346,3.5346,3.5345,3.5345,0,3.4018,3.4152,3.4254,3.4407,3.4499,3.4643,3.471,3.4799,3.4817,3.4873,3.5059,3.516,3.5308,3.5363,3.5382,3.5587,3.5563,3.5536,3.5467,3.5622,3.5695,3.5725,3.5353,3.5351,3.535,3.5348,0,0,3.422,3.4396,3.4433,3.4504,3.4643,3.475,3.4897,3.5041,3.5117,3.5229,3.5355,3.5547,3.5524,3.5609,3.5639,3.5739,3.5908,3.57,3.5704,3.5736,3.6144,3.6164,3.6197,3.5907,3.5913,3.5918,3.6134,0,3.4415,3.4671,3.4715,3.4941,3.5068,3.5077,3.5206,3.5307,3.5365,3.5484,3.5549,3.5684,3.5642,3.5694,3.5793,3.5866,3.5991,3.5851,3.6028,3.6034,3.5997,3.6235,3.6255,3.6454,3.6163,3.6167,3.6171,0,3.4675,3.4793,3.5031,3.5156,3.5211,3.5325,3.5463,3.5575,3.5693,3.5728,3.5825,3.5844,3.6001,3.5925,3.6144,3.6048,3.6124,3.6171,3.618,3.6198,3.6111,3.6261,3.6518,3.6548,3.6216,3.6213,3.6209,0,3.4801,3.5019,3.5191,3.5251,3.5401,3.5482,3.5548,3.566,3.5745,3.5867,3.5924,3.6063,3.6139,3.6248,3.6306,3.6246,3.6522,3.6451,3.6558,3.6557,3.6616,3.6611,3.689,3.6663,3.6663,3.6662,3.6662,0,3.5014,3.516,3.525,3.5355,3.5521,3.5572,3.5735,3.5801,3.5901,3.6023,3.604,3.6155,3.6224,3.6349,3.6396,3.6572,3.6606,3.6642,3.6652,3.664,3.6636,3.669,3.6678,3.667,3.6669,3.6667,3.6666,0,3.5182,3.5247,3.5435,3.5563,3.5598,3.5715,3.5826,3.5931,3.5989,3.6143,3.6182,3.6275,3.6424,3.6493,3.6678,3.671,3.691,3.6911,3.687,3.6874,3.6978,3.6968,3.7302,3.735,3.7091,3.7093,3.7095,0,3.5313,3.5426,3.5565,3.5647,3.5715,3.5847,3.5934,3.5991,3.6082,3.6226,3.6315,3.6464,3.6586,3.6825,3.6911,3.7054,3.7059,3.7167,3.7081,3.7066,3.7063,3.7055,3.7068,3.7182,3.7184,3.7187,3.7188,0,3.554,3.5568,3.5691,3.5828,3.5931,3.6042,3.6151,3.6218,3.6292,3.6394,3.6546,3.6641,3.683,3.698,3.7129,3.7202,3.721,3.7215,3.7248,3.7236,3.7208,3.7227,3.6913,3.7207,3.7205,3.7204,3.7203,3.7202,3.5695,3.5797,3.5911,3.605,3.6138,3.624,3.6345,3.6418,3.6545,3.6701,3.6729,3.6891,3.7011,3.7211,3.729,3.742,3.7395,3.7442,3.7454,3.7465,3.7472,3.7187,3.7448,3.7447,3.7447,3.7446,3.7446,0,3.5924,3.5999,3.6126,3.6277,3.6387,3.6383,3.6505,3.6598,3.674,3.685,3.697,3.7147,3.7294,3.7392,3.7541,3.7627,3.7635,3.7665,3.7659,3.7677,3.7485,3.7442,3.7656,3.7656,3.7656,3.7656,3.7656,3.7656,3.6056,3.6228,3.6271,3.6489,3.6564,3.6722,3.6792,3.6888,3.6976,3.7172,3.7293,3.7356,3.7463,3.762,3.7756,3.7782,3.7836,3.7867,3.7893,3.7711,3.7689,3.7668,3.7629,3.7879,3.7879,3.8074,3.8075,3.8077]}]]